sat.trackr.live / text

‹ back to catalog

SKYKRAFT-1

NORAD 55041 · 2023-001AJ

PAYLOAD ACTIVE UNKNOWN

§ Identity

Operator
Country
AUS
Launch date
2023-01-03
Launch site
AFETR
Launch vehicle
Mass (kg)
RCS (m²)

External: N2YO · Heavens-Above · Gunter

§ Orbital elements

Epoch: 2026-09-21T22:30:32.418144Z

Period
91.23 min
Inclination
97.3085°
Eccentricity
0.0002088
Mean motion
15.78390526 rev/d
Perigee alt
333.6 km
Apogee alt
336.4 km
Semi-major
6,713.1 km
B*
4.4421e-4
RAAN
346.9022°
Arg perigee
86.6326°
Mean anomaly
273.5180°
Rev number
20,825

§ Raw data

SKYKRAFT-11 55041U 23001AJ  26264.93787521  .00076811  00000+0  44421-3 0  99932 55041  97.3085 346.9022 0002088  86.6326 273.5180 15.78390526208253

JSON: /api/v1/satellites/55041 · /tle

For live sub-satellite position, see the globe view (requires WebGL).

§ Visibility from observer

Set your observer location to see the next 7 days of passes ≥ 10°. The values pass through the URL so the page stays shareable.

No JS? Fill the form by hand. The geolocation button needs JavaScript.

§ Radio — SatNOGS DB

ModeDescriptionDownlinkUplink
LoRa Mode U - LoRa 400.450 MHz

1 transmitter · refreshed weekly from db.satnogs.org